Location: Newark
(1.4667°N, 173.0333°E)
Time: 10:13:21
(UTC+00:00)

Envisat - Visible Passes

Search period start: 23 October 2019 00:00
Search period end: 02 November 2019 00:00
Orbit: 764 x 766 km, 98.1° (Epoch: 23 October)

Date Brightness Start Highest point End Pass type
(mag) Time Alt. Az. Time Alt. Az. Time Alt. Az.
23 Oct 3.2 07:06:12 10° S 07:11:16 75° WSW 07:16:19 10° NNW visible
24 Oct 3.5 06:29:55 10° SE 06:34:36 38° ENE 06:39:15 10° N visible
24 Oct 6.2 08:11:22 10° SW 08:13:20 12° WSW 08:15:19 10° W visible
25 Oct 4.6 07:32:06 10° SSW 07:36:42 35° WSW 07:41:17 10° NW visible
26 Oct 2.9 06:54:57 10° SSE 07:00:01 81° ENE 07:05:05 10° N visible
27 Oct 5.8 07:58:54 10° SW 08:02:07 17° WSW 08:05:19 10° WNW visible
28 Oct 4.0 07:20:35 10° S 07:25:27 48° WSW 07:30:19 10° NNW visible
29 Oct 3.0 06:43:48 10° SSE 06:48:47 59° ENE 06:53:45 10° N visible
30 Oct 5.4 07:46:56 10° SSW 07:50:53 23° WSW 07:54:49 10° NW visible
31 Oct 3.4 07:09:11 10° S 07:14:13 66° WSW 07:19:15 10° NNW visible
01 Nov 3.3 06:32:46 10° SSE 06:37:33 42° ENE 06:42:19 10° N visible
01 Nov 6.3 08:15:16 10° WSW 08:16:17 11° WSW 08:17:18 10° W visible
